Regional Weather Roundup
Issued by NWS Sioux Falls, SD

Home | Current Version | Previous Version | Text Only | Print | Product List | Glossary On
Versions: 1 2 3 4 5 6 7 8 9 10 11 12 13 14 15 16 17 18 19 20 21 22 23 24 25 26 27 28 29 30 31 32 33 34 35 36 37 38 39 40 41 42 43 44 45 46 47 48 49 50
000
ASUS43 KFSD 271710
RWRFSD

WEATHER ROUNDUP FOR SE SOUTH DAKOTA/SW MINNESOTA/NW IOWA
NATIONAL WEATHER SERVICE SIOUX FALLS SD
1200 PM CDT THU AUG 27 2015

NOTE: "FAIR" INDICATES FEW OR NO CLOUDS BELOW 12,000 FEET WITH NO
SIGNIFICANT WEATHER AND OR OBSTRUCTIONS TO VISIBILITY.


SDZ038>040-050-052>070-271800-
SOUTHEAST SOUTH DAKOTA

CITY           SKY/WX    TMP DP  RH WIND       PRES   REMARKS
BROOKINGS      CLOUDY    66  63  88 SE8       30.02R
CHAMBERLAIN    MOSUNNY   77  66  68 E8        29.97S
HURON          CLOUDY    72  66  81 SW8       29.98R
MADISON        FAIR      70  70 100 S12       30.02R
MITCHELL       CLOUDY    73  67  81 E12       29.98R
SIOUX FALLS    CLOUDY    73  64  73 VRB6      30.02R
WINNER         CLOUDY    78  67  68 NE8       29.96R
YANKTON        CLOUDY    72  64  78 SE15      29.95F
$$

MNZ071-072-080-081-089-090-097-098-271800-
SOUTHWEST MINNESOTA

CITY           SKY/WX    TMP DP  RH WIND       PRES   REMARKS
FAIRMONT       CLOUDY    64  54  68 SE13      30.01R
JACKSON        CLOUDY    64  59  82 SW3       30.06R
LUVERNE        CLOUDY    70  64  83 CALM      30.04R
MARSHALL       CLOUDY    66  59  77 S8        30.03R
MONTEVIDEO     CLOUDY    68  61  77 S5        30.02F
PIPESTONE      CLOUDY    70  63  78 S8G20     30.04R
REDWOOD FALLS  CLOUDY    71  60  68 S13       30.02R
TRACY          CLOUDY    68  62  80 SE13      30.01F
WINDOM         CLOUDY    66  57  72 S9        30.04R
WORTHINGTON    CLOUDY    64  59  82 SW3       30.04S
$$

IAZ001>003-012>014-020>022-031-032-NEZ013-014-SDZ071-271800-
NORTHWEST IOWA

CITY           SKY/WX    TMP DP  RH WIND       PRES   REMARKS
CHEROKEE       CLOUDY    64  61  91 S15G22    30.02F
DENISON        CLOUDY    64  61  88 SE10G17   30.05F
ESTHERVILLE    CLOUDY    64  59  83 S12       30.04R
LE MARS        CLOUDY    68  63  83 S16G24    30.03R
ORANGE CITY    LGT RAIN  66  63  88 S15       30.00S
SHELDON        CLOUDY    68  64  88 VRB6G13   30.02R
SIOUX CITY     CLOUDY    70  60  70 SE20G30   30.02R
SPENCER        CLOUDY    69  62  78 S10       30.01S
STORM LAKE     CLOUDY    63  57  82 S16G24    30.06R
$$

ABBREVIATIONS USED IN REMARKS
   TC - TEMPERATURE IN CELSIUS
  WCI - WIND CHILL INDEX
   HX - HEAT INDEX
  VSB - VISIBILITY




USA.gov is the U.S. government's official web portal to all federal, state and local government web resources and services.